Gaylord, MI

3:32 PM EDT on April 26, 2017 (GMT -0400)
Otsego County

Weather History for KGLR - November, 2012

Change the Weather History Date:

Friday, November 30, 2012

  Actual Average Record
Temperature  
Mean Temperature 26 °F -  
Max Temperature 28 °F 36 °F 62 °F (1998)
Min Temperature 23 °F 23 °F 5 °F (1976)
Degree Days  
Heating Degree Days 40    
Moisture  
Dew Point 23 °F    
Average Humidity 91    
Maximum Humidity 100    
Minimum Humidity 85    
Precipitation  
Precipitation 0.02 in - - ()
Sea Level Pressure  
Sea Level Pressure 30.29 in    
Wind  
Wind Speed 6 mph (ENE)    
Max Wind Speed 10 mph    
Max Gust Speed 17 mph    
Visibility 5 miles    
Events Snow    
Averages and records for this station are not official NWS values.
T = Trace of Precipitation, MM = Missing Value Source: NWS Daily Summary

Daily Weather History Graph

Daily Weather History Graph

Search for Another Location

Airport or City:

Trip Planner

Search our weather history database for the weather conditions in past years. The results will help you decide how hot, cold, wet, or windy it might be!

Date:

Astronomy

Nov. 30, 2012 Rise Set
Actual Time 7:56 AM EST 4:58 PM EST
Civil Twilight 7:23 AM EST 5:31 PM EST
Nautical Twilight 6:46 AM EST 6:08 PM EST
Astronomical Twilight 6:11 AM EST 6:43 PM EST
Moon 6:53 PM EST (11/30) 9:27 AM EST (11/30)
Length of Visible Light 10h 08m
Length of Day
9h 02m
Waning Gibbous, 96% of the Moon is Illuminated
Nov 30
Waning Gibbous
Dec 6
Last Quarter
Dec 13
New
Dec 20
First Quarter
Dec 28
Full

Hourly Weather History & Observations

Time (EST) Temp. Windchill Dew Point Humidity Pressure Visibility Wind Dir Wind Speed Gust Speed Precip Events Conditions
12:06 AM 24.8 °F 17.9 °F 23.0 °F 93% 30.24 in 1.0 mi ENE 5.8 mph - 0.00 in Snow Light Snow
12:53 AM 24.1 °F 16.0 °F 21.9 °F 91% 30.30 in 1.8 mi East 6.9 mph - 0.00 in Snow Light Snow
1:06 AM 24.8 °F 16.9 °F 21.2 °F 86% 30.24 in 3.0 mi East 6.9 mph - 0.00 in   Overcast
1:53 AM 23.0 °F 13.9 °F 21.9 °F 96% 30.30 in 8.0 mi East 8.1 mph - 0.00 in   Overcast
2:53 AM 23.0 °F 15.8 °F 21.0 °F 92% 30.32 in 10.0 mi ENE 5.8 mph 17.3 mph N/A   Overcast
3:53 AM 23.0 °F 15.8 °F 21.0 °F 92% 30.32 in 10.0 mi ENE 5.8 mph 16.1 mph N/A   Overcast
4:53 AM 23.0 °F 14.7 °F 21.9 °F 96% 30.31 in 7.0 mi Variable 6.9 mph - N/A   Overcast
5:53 AM 24.1 °F 17.0 °F 21.9 °F 91% 30.31 in 10.0 mi East 5.8 mph - N/A   Overcast
6:53 AM 24.1 °F 17.0 °F 21.9 °F 91% 30.32 in 4.0 mi East 5.8 mph - 0.00 in Snow Light Snow
7:17 AM 24.8 °F 17.9 °F 21.2 °F 86% 30.26 in 1.8 mi East 5.8 mph - 0.00 in Snow Light Snow
7:43 AM 24.8 °F 17.9 °F 21.2 °F 86% 30.26 in 1.2 mi East 5.8 mph - 0.01 in Snow Light Snow
7:53 AM 24.1 °F 15.2 °F 21.9 °F 91% 30.32 in 2.0 mi ENE 8.1 mph - 0.01 in Snow Light Snow
8:04 AM 24.8 °F 16.1 °F 21.2 °F 86% 30.26 in 4.0 mi East 8.1 mph - 0.00 in Snow Light Snow
8:33 AM 24.8 °F 16.9 °F 21.2 °F 86% 30.26 in 7.0 mi Variable 6.9 mph - 0.00 in   Overcast
8:53 AM 24.1 °F 13.7 °F 21.0 °F 88% 30.32 in 10.0 mi East 10.4 mph - 0.00 in   Overcast
9:39 AM 24.8 °F 16.9 °F 21.2 °F 86% 30.27 in 2.0 mi ENE 6.9 mph - 0.00 in Snow Light Snow
9:53 AM 24.1 °F 15.2 °F 21.9 °F 91% 30.34 in 2.0 mi ENE 8.1 mph - 0.00 in Snow Light Snow
10:02 AM 24.8 °F 16.1 °F 21.2 °F 86% 30.27 in 3.0 mi ENE 8.1 mph - 0.00 in Snow Light Snow
10:34 AM 24.8 °F 19.1 °F 21.2 °F 86% 30.28 in 1.8 mi East 4.6 mph - 0.00 in Snow Light Snow
10:53 AM 25.0 °F 19.3 °F 21.9 °F 88% 30.35 in 1.5 mi Variable 4.6 mph - 0.01 in Snow Light Snow
11:12 AM 24.8 °F 16.1 °F 21.2 °F 86% 30.29 in 1.5 mi ENE 8.1 mph - 0.00 in Snow Light Snow
11:14 AM 24.8 °F 16.1 °F 21.2 °F 86% 30.28 in 1.5 mi ENE 8.1 mph - 0.00 in Snow Light Snow
11:31 AM 24.8 °F 16.9 °F 21.2 °F 86% 30.28 in 2.0 mi ENE 6.9 mph - 0.00 in Snow Light Snow
11:39 AM 24.8 °F 17.9 °F 23.0 °F 93% 30.27 in 1.8 mi Variable 5.8 mph - 0.00 in Snow Light Snow
11:48 AM 24.8 °F 17.9 °F 23.0 °F 93% 30.27 in 3.0 mi East 5.8 mph - 0.00 in Snow Light Snow
11:53 AM 25.0 °F 16.3 °F 23.0 °F 92% 30.34 in 4.0 mi East 8.1 mph - 0.00 in Snow Light Snow
12:53 PM 26.1 °F 19.4 °F 23.0 °F 88% 30.32 in 10.0 mi ENE 5.8 mph - 0.00 in   Overcast
1:53 PM 27.0 °F 19.5 °F 23.0 °F 85% 30.31 in 10.0 mi East 6.9 mph - N/A   Overcast
2:53 PM 27.0 °F 20.5 °F 24.1 °F 89% 30.30 in 10.0 mi Variable 5.8 mph - N/A   Overcast
3:30 PM 28.4 °F 20.4 °F 24.8 °F 86% 30.23 in 10.0 mi East 8.1 mph - N/A   Overcast
3:53 PM 28.0 °F 20.8 °F 25.0 °F 88% 30.30 in 10.0 mi East 6.9 mph - N/A   Overcast
4:53 PM 28.0 °F 20.0 °F 26.1 °F 92% 30.33 in 10.0 mi ENE 8.1 mph - N/A   Overcast
5:53 PM 28.0 °F 21.7 °F 26.1 °F 92% 30.32 in 10.0 mi ENE 5.8 mph - N/A   Overcast
6:53 PM 28.0 °F 22.8 °F 27.0 °F 96% 30.34 in 10.0 mi East 4.6 mph - N/A   Overcast
7:17 PM 28.4 °F 23.3 °F 26.6 °F 93% 30.29 in 9.0 mi East 4.6 mph - N/A   Overcast
7:53 PM 28.0 °F 22.8 °F 27.0 °F 96% 30.33 in 6.0 mi Variable 4.6 mph - N/A   Overcast
8:41 PM 28.4 °F 23.3 °F 28.4 °F 100% 30.26 in 2.5 mi Variable 4.6 mph - N/A   Overcast
8:53 PM 28.0 °F 22.8 °F 28.0 °F 100% 30.32 in 2.0 mi Variable 4.6 mph - N/A   Overcast
9:05 PM 28.4 °F 22.2 °F 28.4 °F 100% 30.25 in 1.8 mi Variable 5.8 mph - N/A   Overcast
9:53 PM 28.9 °F 23.9 °F 28.0 °F 96% 30.33 in 1.8 mi East 4.6 mph - N/A   Overcast
10:53 PM 28.9 °F 22.8 °F 28.9 °F 100% 30.30 in 0.8 mi Variable 5.8 mph - N/A   Overcast
11:37 PM 28.4 °F 24.6 °F 28.4 °F 100% 30.23 in 1.0 mi Variable 3.5 mph - N/A   Overcast